| time (UTC) | temp F | wind direction | speed knots | gust knots | rain 1hr in | rain 24hr in | rain mn in | humidity % | barometer mb |
| 20260504214557 | 77 | 71 | 0.0 | 7.8 | 0.00 | 0.00 | 0.00 | 31 | 1007.4 |
| 20260504213111 | 77 | 0 | 0.0 | 7.8 | 0.00 | 0.00 | 0.00 | 32 | 1007.5 |
| 20260504211554 | 78 | 101 | 0.0 | 5.2 | 0.00 | 0.00 | 0.00 | 31 | 1007.6 |
| 20260504210104 | 77 | 0 | 0.0 | 8.7 | 0.00 | 0.00 | 0.00 | 33 | 1007.7 |
| 20260504204602 | 77 | 264 | 0.0 | 3.5 | 0.00 | 0.00 | 0.00 | 35 | 1007.7 |
| 20260504203053 | 77 | 36 | 0.0 | 5.2 | 0.00 | 0.00 | 0.00 | 36 | 1007.7 |
| 20260504201559 | 76 | 0 | 0.0 | 6.1 | 0.00 | 0.00 | 0.00 | 36 | 1007.7 |
| 20260504200055 | 76 | 0 | 2.6 | 7.0 | 0.00 | 0.00 | 0.00 | 31 | 1007.8 |
| 20260504194557 | 75 | 273 | 0.9 | 6.1 | 0.00 | 0.00 | 0.00 | 36 | 1008.0 |
| 20260504193112 | 75 | 0 | 0.0 | 5.2 | 0.00 | 0.00 | 0.00 | 35 | 1008.0 |
| 20260504191559 | 74 | 128 | 1.7 | 7.8 | 0.00 | 0.00 | 0.00 | 35 | 1008.1 |
| 20260504190107 | 74 | 0 | 0.0 | 7.8 | 0.00 | 0.00 | 0.00 | 36 | 1008.3 |
| 20260504184556 | 74 | 98 | 0.9 | 8.7 | 0.00 | 0.00 | 0.00 | 36 | 1008.5 |
| 20260504183102 | 73 | 49 | 2.6 | 7.8 | 0.00 | 0.00 | 0.00 | 38 | 1008.4 |
| 20260504181559 | 73 | 74 | 2.6 | 7.8 | 0.00 | 0.00 | 0.00 | 40 | 1008.4 |
| 20260504180138 | 72 | 0 | 0.0 | 6.1 | 0.00 | 0.00 | 0.00 | 41 | 1008.5 |
| 20260504174555 | 71 | 0 | 0.0 | 5.2 | 0.00 | 0.00 | 0.00 | 43 | 1008.6 |
| 20260504173058 | 69 | 0 | 0.0 | 3.5 | 0.00 | 0.00 | 0.00 | 45 | 1008.6 |
| 20260504171558 | 69 | 0 | 0.0 | 0.0 | 0.00 | 0.00 | 0.00 | 47 | 1008.6 |
| 20260504120109 | 44 | 0 | 0.0 | 0.0 | 0.00 | 0.00 | 0.00 | 88 | 1007.9 |
| 20260504100114 | 48 | 0 | 0.0 | 0.0 | 0.00 | 0.00 | 0.00 | 80 | 1007.8 |
| 20260504081553 | 51 | 0 | 0.0 | 0.0 | 0.00 | 0.00 | 0.00 | 74 | 1007.4 |
| 20260504060108 | 56 | 0 | 0.0 | 0.0 | 0.00 | 0.00 | 0.00 | 66 | 1007.9 |
| 20260504050105 | 58 | 0 | 0.0 | 0.0 | 0.00 | 0.00 | 0.00 | 60 | 1008.1 |
| 20260504044556 | 59 | 0 | 0.0 | 0.0 | 0.00 | 0.00 | 0.00 | 59 | 1008.0 |
| 20260504043101 | 60 | 0 | 0.0 | 0.0 | 0.00 | 0.00 | 0.00 | 59 | 1008.0 |
| 20260504041557 | 61 | 0 | 0.0 | 0.0 | 0.00 | 0.00 | 0.00 | 56 | 1008.0 |
| 20260504040103 | 62 | 0 | 0.0 | 0.0 | 0.00 | 0.00 | 0.00 | 56 | 1007.9 |
| 20260504034615 | 64 | 0 | 0.0 | 0.0 | 0.00 | 0.00 | 0.00 | 51 | 1007.8 |
| 20260504033058 | 65 | 0 | 0.0 | 0.0 | 0.00 | 0.00 | 0.00 | 49 | 1007.6 |
| 20260504031603 | 68 | 0 | 0.0 | 0.0 | 0.00 | 0.00 | 0.00 | 45 | 1007.6 |
| 20260504030054 | 71 | 0 | 0.0 | 0.0 | 0.00 | 0.00 | 0.00 | 41 | 1007.6 |
| 20260504024558 | 74 | 0 | 0.0 | 0.0 | 0.00 | 0.00 | 0.00 | 37 | 1007.6 |
| 20260504023059 | 77 | 0 | 0.0 | 0.0 | 0.00 | 0.00 | 0.00 | 32 | 1007.6 |
| 20260504021600 | 80 | 0 | 0.0 | 0.0 | 0.00 | 0.00 | 0.00 | 28 | 1007.8 |
| 20260504020119 | 79 | 0 | 0.0 | 0.9 | 0.00 | 0.00 | 0.00 | 27 | 1007.8 |
| 20260504014557 | 79 | 0 | 0.0 | 6.1 | 0.00 | 0.00 | 0.00 | 26 | 1008.1 |
| 20260504013051 | 80 | 0 | 0.0 | 1.7 | 0.00 | 0.00 | 0.00 | 26 | 1008.2 |
| 20260504011556 | 80 | 0 | 1.7 | 3.5 | 0.00 | 0.00 | 0.00 | 26 | 1008.3 |
| 20260504010054 | 80 | 232 | 0.0 | 5.2 | 0.00 | 0.00 | 0.00 | 26 | 1008.5 |
| 20260504004612 | 80 | 0 | 0.0 | 4.3 | 0.00 | 0.00 | 0.00 | 26 | 1008.6 |
| 20260504003054 | 80 | 239 | 0.0 | 7.8 | 0.00 | 0.00 | 0.00 | 26 | 1008.6 |
| 20260504001556 | 80 | 0 | 0.0 | 2.6 | 0.00 | 0.00 | 0.00 | 25 | 1008.8 |
| 20260504000101 | 80 | 254 | 0.9 | 3.5 | 0.00 | 0.00 | 0.00 | 24 | 1009.0 |
| 20260503234554 | 79 | 0 | 0.0 | 6.1 | 0.00 | 0.00 | 0.00 | 27 | 1009.1 |
| 20260503233053 | 80 | 0 | 0.9 | 7.8 | 0.00 | 0.00 | 0.00 | 24 | 1009.3 |
| 20260503231553 | 80 | 252 | 2.6 | 7.8 | 0.00 | 0.00 | 0.00 | 25 | 1009.2 |
| 20260503230103 | 80 | 299 | 1.7 | 4.3 | 0.00 | 0.00 | 0.00 | 25 | 1009.5 |
| 20260503224558 | 80 | 276 | 0.9 | 4.3 | 0.00 | 0.00 | 0.00 | 26 | 1009.7 |
| 20260503223051 | 79 | 188 | 0.9 | 4.3 | 0.00 | 0.00 | 0.00 | 26 | 1010.1 |
| 20260503221551 | 80 | 273 | 1.7 | 7.0 | 0.00 | 0.00 | 0.00 | 26 | 1010.1 |
| 20260503220058 | 79 | 294 | 0.0 | 8.7 | 0.00 | 0.00 | 0.00 | 26 | 1010.3 |